N4555L KSAN-KLAX

Flight info

Callsign N4555L
Flight time 0h 34m
Altitude 5000
Route COSTAL ROUTE 123
Aircraft COL4/L-VGD/C

Departure

Time 2026-04-22 03:19
Airport San Diego International Airport (KSAN)

Arrival

Time 2026-04-22 03:54
Airport Los Angeles International Airport (KLAX)
Time Latitude Longitude Altitude Speed Heading
2026-04-22 03:09 32.73321 -117.17770 24 ft 0 kts 176°
2026-04-22 03:16 32.73320 -117.17770 24 ft 2 kts 175°
2026-04-22 03:16 32.73279 -117.17759 24 ft 15 kts 144°
2026-04-22 03:17 32.73240 -117.17703 24 ft 0 kts 130°
2026-04-22 03:17 32.73234 -117.17696 25 ft 9 kts 140°
2026-04-22 03:17 32.73158 -117.17652 23 ft 13 kts 156°
2026-04-22 03:17 32.73117 -117.17573 22 ft 0 kts 121°
2026-04-22 03:18 32.73086 -117.17548 24 ft 15 kts 144°
2026-04-22 03:18 32.73021 -117.17542 25 ft 2 kts 237°
2026-04-22 03:19 32.73049 -117.17686 22 ft 47 kts 289°
2026-04-22 03:19 32.73180 -117.18269 106 ft 89 kts 284°
2026-04-22 03:19 32.73331 -117.18940 489 ft 95 kts 285°
2026-04-22 03:19 32.73537 -117.19648 839 ft 101 kts 288°
2026-04-22 03:20 32.73712 -117.20382 1331 ft 93 kts 286°
2026-04-22 03:20 32.73780 -117.21255 1502 ft 119 kts 276°
2026-04-22 03:20 32.73819 -117.22328 1604 ft 139 kts 274°
2026-04-22 03:20 32.73868 -117.23496 1802 ft 143 kts 286°
2026-04-22 03:21 32.74500 -117.24391 2011 ft 147 kts 322°
2026-04-22 03:21 32.75331 -117.25109 2258 ft 148 kts 320°
2026-04-22 03:21 32.76165 -117.25842 2539 ft 150 kts 321°
2026-04-22 03:21 32.77009 -117.26576 2842 ft 149 kts 321°
2026-04-22 03:22 32.77861 -117.27299 3115 ft 153 kts 321°
2026-04-22 03:22 32.78725 -117.28021 3378 ft 154 kts 320°
2026-04-22 03:22 32.79605 -117.28746 3665 ft 155 kts 321°
2026-04-22 03:22 32.80500 -117.29478 3951 ft 156 kts 321°
2026-04-22 03:23 32.81401 -117.30209 4223 ft 158 kts 321°
2026-04-22 03:23 32.82318 -117.30949 4501 ft 160 kts 321°
2026-04-22 03:23 32.83260 -117.31695 4639 ft 169 kts 321°
2026-04-22 03:23 32.84271 -117.32497 4646 ft 178 kts 321°
2026-04-22 03:24 32.85316 -117.33342 4649 ft 184 kts 321°
2026-04-22 03:24 32.86382 -117.34218 4647 ft 187 kts 321°
2026-04-22 03:24 32.87460 -117.35101 4645 ft 189 kts 321°
2026-04-22 03:24 32.88537 -117.35980 4644 ft 191 kts 321°
2026-04-22 03:25 32.90927 -117.37949 4643 ft 192 kts 321°
2026-04-22 03:25 32.92026 -117.38849 4640 ft 192 kts 321°
2026-04-22 03:25 32.93125 -117.39753 4640 ft 192 kts 321°
2026-04-22 03:26 32.94226 -117.40656 4634 ft 192 kts 321°
2026-04-22 03:26 32.95324 -117.41560 4634 ft 191 kts 321°
2026-04-22 03:26 32.96426 -117.42463 4632 ft 192 kts 321°
2026-04-22 03:26 32.97607 -117.43208 4621 ft 196 kts 339°
2026-04-22 03:27 32.98888 -117.43677 4624 ft 195 kts 334°
2026-04-22 03:27 33.00063 -117.44443 4621 ft 192 kts 320°
2026-04-22 03:27 33.01096 -117.45443 4618 ft 191 kts 315°
2026-04-22 03:27 33.02104 -117.46474 4619 ft 191 kts 315°
2026-04-22 03:28 33.03123 -117.47489 4626 ft 191 kts 316°
2026-04-22 03:28 33.04149 -117.48499 4633 ft 191 kts 316°
2026-04-22 03:28 33.05170 -117.49504 4633 ft 189 kts 316°
2026-04-22 03:28 33.06181 -117.50501 4631 ft 188 kts 316°
2026-04-22 03:29 33.07188 -117.51493 4625 ft 187 kts 316°
2026-04-22 03:29 33.08181 -117.52470 4624 ft 188 kts 317°
2026-04-22 03:29 33.09190 -117.53472 4614 ft 189 kts 316°
2026-04-22 03:29 33.10201 -117.54468 4571 ft 182 kts 315°
2026-04-22 03:30 33.11173 -117.55429 4525 ft 183 kts 316°
2026-04-22 03:30 33.12163 -117.56412 4525 ft 186 kts 316°
2026-04-22 03:30 33.13168 -117.57403 4527 ft 188 kts 316°
2026-04-22 03:30 33.14281 -117.58217 4518 ft 192 kts 334°
2026-04-22 03:31 33.15530 -117.58789 4521 ft 191 kts 330°
2026-04-22 03:31 33.16666 -117.59555 4522 ft 189 kts 321°
2026-04-22 03:31 33.17668 -117.60562 4523 ft 188 kts 313°
2026-04-22 03:31 33.18645 -117.61601 4525 ft 189 kts 315°
2026-04-22 03:32 33.19644 -117.62621 4523 ft 189 kts 315°
2026-04-22 03:32 33.20650 -117.63630 4523 ft 189 kts 315°
2026-04-22 03:32 33.21655 -117.64640 4523 ft 189 kts 316°
2026-04-22 03:32 33.22662 -117.65654 4523 ft 189 kts 315°
2026-04-22 03:33 33.23673 -117.66662 4525 ft 190 kts 317°
2026-04-22 03:33 33.24754 -117.67582 4462 ft 193 kts 321°
2026-04-22 03:33 33.25856 -117.68507 4435 ft 192 kts 321°
2026-04-22 03:33 33.26946 -117.69424 4443 ft 191 kts 321°
2026-04-22 03:34 33.28020 -117.70319 4449 ft 190 kts 321°
2026-04-22 03:34 33.29099 -117.71229 4456 ft 189 kts 320°
2026-04-22 03:34 33.30183 -117.72129 4456 ft 190 kts 321°
2026-04-22 03:34 33.31263 -117.73039 4454 ft 190 kts 321°
2026-04-22 03:35 33.32342 -117.73951 4444 ft 190 kts 321°
2026-04-22 03:35 33.33424 -117.74854 4447 ft 190 kts 321°
2026-04-22 03:35 33.34507 -117.75760 4436 ft 190 kts 320°
2026-04-22 03:35 33.35590 -117.76663 4437 ft 190 kts 322°
2026-04-22 03:36 33.36669 -117.77570 4424 ft 190 kts 321°
2026-04-22 03:36 33.37743 -117.78444 4396 ft 184 kts 321°
2026-04-22 03:36 33.38808 -117.79310 4428 ft 185 kts 321°
2026-04-22 03:36 33.39850 -117.80176 4479 ft 185 kts 321°
2026-04-22 03:37 33.40912 -117.81056 4497 ft 186 kts 321°
2026-04-22 03:37 33.41981 -117.81940 4499 ft 188 kts 321°
2026-04-22 03:37 33.43065 -117.82821 4498 ft 189 kts 321°
2026-04-22 03:37 33.44143 -117.83717 4505 ft 189 kts 321°
2026-04-22 03:38 33.45214 -117.84635 4504 ft 190 kts 321°
2026-04-22 03:38 33.46286 -117.85559 4522 ft 190 kts 321°
2026-04-22 03:38 33.47358 -117.86484 4515 ft 190 kts 321°
2026-04-22 03:38 33.48435 -117.87413 4508 ft 191 kts 321°
2026-04-22 03:39 33.49500 -117.88332 4508 ft 191 kts 321°
2026-04-22 03:39 33.50569 -117.89274 4507 ft 190 kts 318°
2026-04-22 03:39 33.51546 -117.90333 4507 ft 189 kts 314°
2026-04-22 03:39 33.52510 -117.91412 4507 ft 190 kts 314°
2026-04-22 03:40 33.53475 -117.92492 4503 ft 190 kts 314°
2026-04-22 03:40 33.54439 -117.93572 4504 ft 190 kts 314°
2026-04-22 03:40 33.55402 -117.94652 4504 ft 190 kts 314°
2026-04-22 03:40 33.56366 -117.95738 4503 ft 190 kts 314°
2026-04-22 03:41 33.57328 -117.96823 4506 ft 190 kts 314°
2026-04-22 03:41 33.58290 -117.97905 4508 ft 190 kts 314°
2026-04-22 03:41 33.59240 -117.98972 4506 ft 190 kts 314°
2026-04-22 03:41 33.60204 -118.00054 4506 ft 190 kts 314°
2026-04-22 03:42 33.61167 -118.01134 4503 ft 190 kts 314°
2026-04-22 03:42 33.62132 -118.02213 4503 ft 189 kts 314°
2026-04-22 03:42 33.63097 -118.03291 4509 ft 190 kts 314°
2026-04-22 03:42 33.64067 -118.04367 4509 ft 190 kts 314°
2026-04-22 03:43 33.65040 -118.05445 4508 ft 191 kts 314°
2026-04-22 03:43 33.66010 -118.06529 4511 ft 190 kts 314°
2026-04-22 03:43 33.66935 -118.07619 4504 ft 187 kts 307°
2026-04-22 03:43 33.67677 -118.08892 4501 ft 186 kts 302°
2026-04-22 03:44 33.68393 -118.10183 4500 ft 185 kts 301°
2026-04-22 03:44 33.69106 -118.11466 4500 ft 184 kts 301°
2026-04-22 03:44 33.69819 -118.12744 4497 ft 184 kts 301°
2026-04-22 03:44 33.70528 -118.14024 4497 ft 184 kts 301°
2026-04-22 03:45 33.71240 -118.15298 4498 ft 184 kts 301°
2026-04-22 03:45 33.71954 -118.16572 4498 ft 184 kts 301°
2026-04-22 03:45 33.72667 -118.17854 4496 ft 185 kts 301°
2026-04-22 03:45 33.73382 -118.19142 4494 ft 186 kts 301°
2026-04-22 03:46 33.74084 -118.20421 4498 ft 186 kts 301°
2026-04-22 03:46 33.74798 -118.21710 4498 ft 185 kts 301°
2026-04-22 03:46 33.75515 -118.22998 4494 ft 185 kts 301°
2026-04-22 03:46 33.76233 -118.24282 4513 ft 185 kts 302°
2026-04-22 03:47 33.76944 -118.25554 4423 ft 175 kts 301°
2026-04-22 03:47 33.77635 -118.26789 3551 ft 183 kts 301°
2026-04-22 03:47 33.78329 -118.28046 2856 ft 178 kts 301°
2026-04-22 03:47 33.78990 -118.29247 2521 ft 159 kts 301°
2026-04-22 03:48 33.79549 -118.30251 2506 ft 132 kts 301°
2026-04-22 03:48 33.80014 -118.31080 2506 ft 112 kts 301°
2026-04-22 03:48 33.80428 -118.31814 2511 ft 108 kts 301°
2026-04-22 03:48 33.80879 -118.32589 2508 ft 117 kts 304°
2026-04-22 03:49 33.81446 -118.33311 2518 ft 119 kts 307°
2026-04-22 03:49 33.82019 -118.34054 2524 ft 123 kts 310°
2026-04-22 03:49 33.82627 -118.34823 2530 ft 138 kts 310°
2026-04-22 03:49 33.83344 -118.35739 2530 ft 161 kts 310°
2026-04-22 03:50 33.84135 -118.36757 2530 ft 172 kts 310°
2026-04-22 03:50 33.84904 -118.37854 2530 ft 175 kts 306°
2026-04-22 03:50 33.85618 -118.39053 2527 ft 178 kts 303°
2026-04-22 03:50 33.86484 -118.40103 2515 ft 180 kts 324°
2026-04-22 03:51 33.87639 -118.40702 2512 ft 187 kts 346°
2026-04-22 03:51 33.88907 -118.40790 2667 ft 167 kts 353°
2026-04-22 03:51 33.89996 -118.40796 2569 ft 147 kts
2026-04-22 03:51 33.90808 -118.40224 2254 ft 134 kts 45°
2026-04-22 03:52 33.91281 -118.39292 1898 ft 124 kts 63°
2026-04-22 03:52 33.91543 -118.38374 1564 ft 108 kts 73°
2026-04-22 03:52 33.91757 -118.37612 1342 ft 92 kts 55°
2026-04-22 03:52 33.92207 -118.37157 1155 ft 81 kts
2026-04-22 03:53 33.92761 -118.37084 937 ft 85 kts
2026-04-22 03:53 33.93272 -118.37083 829 ft 71 kts 329°
2026-04-22 03:53 33.93659 -118.37510 532 ft 74 kts 290°
2026-04-22 03:53 33.93742 -118.38110 281 ft 72 kts 266°
2026-04-22 03:54 33.93698 -118.38642 123 ft 53 kts 260°
2026-04-22 03:54 33.93663 -118.38966 121 ft 28 kts 269°
2026-04-22 03:54 33.93634 -118.39131 120 ft 14 kts 266°
2026-04-22 03:54 33.93570 -118.39117 121 ft 17 kts 162°
2026-04-22 03:55 33.93517 -118.39211 121 ft 12 kts 261°
2026-04-22 03:55 33.93503 -118.39346 121 ft 24 kts 265°
2026-04-22 03:55 33.93477 -118.39605 120 ft 37 kts 261°
2026-04-22 03:55 33.93423 -118.39820 120 ft 15 kts 213°
2026-04-22 03:56 33.93381 -118.39845 120 ft 0 kts 199°
2026-04-22 03:56 33.93371 -118.39858 119 ft 3 kts 310°
2026-04-22 03:56 33.93376 -118.39861 121 ft 0 kts 354°